Portada
METAR-TAF:

METAR-TAF

Aeropuertos :

Valence, Francia

latitud: 44-54-58N, longitud: 4-58-06E, altitud: 160 m

Observación

El informe se hizo hace 31 minutos, a las 14:00 UTC
Viento 23 kt del norte
Temperatura 11°C
Humedad 50%
Presión 1032 hPa
Visibilidad 10 km o más
Cielo cubierto a una altura de 4100 ft

METAR: LFLU 031400Z AUTO 36023KT 9999 OVC041 11/01 Q1032

Hora: 15:31 (14:31 UTC)


TAF: falta

Observaciones y pronósticos meteorológicos de más de 4000 aeropuertos (mensajes METAR y TAF).

Los puntos amarillos y rojos representan las estaciones disponibles.

Ponga el ratón en el punto deseado para ver el nombre de la estación.

Haga clic para ver las observaciones y los pronósticos meteorológicos.

Para cambiar el mapa : haga clic en los botones verdes con una cruz de color negro para hacer un zoom, en el botón verde con un guión para alejar o en las flechas verdes para mapas adyacentes.


METAR-TAF: